| time (UTC) | temp F | wind direction | speed MPH | gust MPH | rain 1hr in | rain 24hr in | rain mn in | humidity % | barometer mb |
| 20260902005603 | 92 | 0 | 0.0 | 0.0 | 0.00 | 0.00 | 0.00 | 55 | 1012.4 |
| 20260902004703 | 93 | 0 | 0.0 | 0.0 | 0.00 | 0.00 | 0.00 | 55 | 1012.3 |
| 20260902004506 | 93 | 133 | 0.0 | 0.0 | 0.00 | 0.00 | 0.00 | 55 | 1011.9 |
| 20260902003803 | 94 | 133 | 0.0 | 1.0 | 0.00 | 0.00 | 0.00 | 53 | 1012.2 |
| 20260902003008 | 94 | 133 | 0.0 | 2.0 | 0.00 | 0.00 | 0.00 | 52 | 1011.9 |
| 20260902002903 | 94 | 133 | 1.0 | 2.0 | 0.00 | 0.00 | 0.00 | 52 | 1012.2 |
| 20260902002003 | 95 | 134 | 1.0 | 2.0 | 0.00 | 0.00 | 0.00 | 51 | 1012.3 |
| 20260902001508 | 94 | 135 | 1.0 | 3.0 | 0.00 | 0.00 | 0.00 | 51 | 1012.0 |
| 20260902001103 | 95 | 142 | 2.0 | 4.0 | 0.00 | 0.00 | 0.00 | 50 | 1012.3 |
| 20260902000011 | 95 | 153 | 1.0 | 5.0 | 0.00 | 0.00 | 0.00 | 50 | 1012.0 |
| 20260901235307 | 95 | 138 | 3.0 | 5.0 | 0.00 | 0.00 | 0.00 | 49 | 1012.4 |
| 20260901234503 | 95 | 121 | 2.0 | 7.0 | 0.00 | 0.00 | 0.00 | 49 | 1012.1 |
| 20260901234403 | 96 | 145 | 4.0 | 7.0 | 0.00 | 0.00 | 0.00 | 49 | 1012.4 |
| 20260901233503 | 96 | 161 | 4.0 | 9.0 | 0.00 | 0.00 | 0.00 | 48 | 1012.5 |
| 20260901233111 | 96 | 149 | 2.0 | 9.0 | 0.00 | 0.00 | 0.00 | 48 | 1012.2 |
| 20260901232603 | 97 | 138 | 3.0 | 7.0 | 0.00 | 0.00 | 0.00 | 47 | 1012.6 |
| 20260901231703 | 98 | 138 | 4.0 | 10.0 | 0.00 | 0.00 | 0.00 | 46 | 1012.6 |
| 20260901231609 | 97 | 114 | 4.0 | 10.0 | 0.00 | 0.00 | 0.00 | 47 | 1012.3 |
| 20260901230803 | 98 | 115 | 3.0 | 8.0 | 0.00 | 0.00 | 0.00 | 46 | 1012.6 |
| 20260901230012 | 97 | 108 | 1.0 | 7.0 | 0.00 | 0.00 | 0.00 | 46 | 1012.3 |
| 20260901225903 | 98 | 112 | 4.0 | 8.0 | 0.00 | 0.00 | 0.00 | 46 | 1012.7 |
| 20260901225003 | 98 | 155 | 5.0 | 11.0 | 0.00 | 0.00 | 0.00 | 46 | 1012.7 |
| 20260901224504 | 98 | 127 | 3.0 | 11.0 | 0.00 | 0.00 | 0.00 | 47 | 1012.5 |
| 20260901224103 | 99 | 169 | 6.0 | 11.0 | 0.00 | 0.00 | 0.00 | 46 | 1012.7 |
| 20260901223008 | 98 | 161 | 7.0 | 13.0 | 0.00 | 0.00 | 0.00 | 46 | 1012.4 |
| 20260901222306 | 99 | 157 | 7.0 | 12.0 | 0.00 | 0.00 | 0.00 | 45 | 1012.9 |
| 20260901221505 | 99 | 159 | 7.0 | 11.0 | 0.00 | 0.00 | 0.00 | 45 | 1012.6 |
| 20260901221403 | 99 | 151 | 6.0 | 11.0 | 0.00 | 0.00 | 0.00 | 45 | 1012.9 |
| 20260901220503 | 99 | 154 | 6.0 | 9.0 | 0.00 | 0.00 | 0.00 | 45 | 1012.8 |
| 20260901220134 | 99 | 171 | 6.0 | 10.0 | 0.00 | 0.00 | 0.00 | 46 | 1012.6 |
| 20260901214703 | 100 | 158 | 6.0 | 11.0 | 0.00 | 0.00 | 0.00 | 45 | 1012.9 |
| 20260901214503 | 99 | 137 | 5.0 | 11.0 | 0.00 | 0.00 | 0.00 | 44 | 1012.6 |
| 20260901213802 | 100 | 156 | 7.0 | 11.0 | 0.00 | 0.00 | 0.00 | 45 | 1013.0 |
| 20260901213120 | 100 | 132 | 8.0 | 12.0 | 0.00 | 0.00 | 0.00 | 44 | 1012.7 |
| 20260901212903 | 100 | 153 | 7.0 | 12.0 | 0.00 | 0.00 | 0.00 | 44 | 1013.0 |
| 20260901212002 | 100 | 143 | 6.0 | 13.0 | 0.00 | 0.00 | 0.00 | 45 | 1013.1 |
| 20260901211503 | 100 | 153 | 4.0 | 11.0 | 0.00 | 0.00 | 0.00 | 46 | 1012.8 |
| 20260901211103 | 100 | 147 | 6.0 | 11.0 | 0.00 | 0.00 | 0.00 | 44 | 1013.2 |
| 20260901210203 | 100 | 157 | 8.0 | 15.0 | 0.00 | 0.00 | 0.00 | 45 | 1013.2 |
| 20260901210017 | 100 | 148 | 8.0 | 16.0 | 0.00 | 0.00 | 0.00 | 45 | 1012.9 |
| 20260901205306 | 101 | 162 | 8.0 | 15.0 | 0.00 | 0.00 | 0.00 | 45 | 1013.2 |
| 20260901204604 | 101 | 165 | 9.0 | 15.0 | 0.00 | 0.00 | 0.00 | 45 | 1012.9 |
| 20260901204403 | 101 | 164 | 7.0 | 15.0 | 0.00 | 0.00 | 0.00 | 45 | 1013.2 |
| 20260901203503 | 100 | 138 | 5.0 | 11.0 | 0.00 | 0.00 | 0.00 | 46 | 1013.4 |
| 20260901203110 | 99 | 165 | 4.0 | 8.0 | 0.00 | 0.00 | 0.00 | 46 | 1013.1 |
| 20260901202603 | 100 | 127 | 5.0 | 14.0 | 0.00 | 0.00 | 0.00 | 45 | 1013.5 |
| 20260901201703 | 101 | 154 | 3.0 | 10.0 | 0.00 | 0.00 | 0.00 | 44 | 1013.6 |
| 20260901201505 | 100 | 95 | 3.0 | 7.0 | 0.00 | 0.00 | 0.00 | 45 | 1013.2 |
| 20260901200803 | 101 | 140 | 3.0 | 8.0 | 0.00 | 0.00 | 0.00 | 44 | 1013.7 |
| 20260901200005 | 100 | 106 | 1.0 | 5.0 | 0.00 | 0.00 | 0.00 | 45 | 1013.5 |
| 20260901195903 | 100 | 84 | 3.0 | 7.0 | 0.00 | 0.00 | 0.00 | 45 | 1013.9 |
| 20260901195002 | 101 | 116 | 3.0 | 9.0 | 0.00 | 0.00 | 0.00 | 44 | 1014.0 |
| 20260901194603 | 100 | 130 | 1.0 | 6.0 | 0.00 | 0.00 | 0.00 | 46 | 1013.7 |
| 20260901194103 | 100 | 181 | 3.0 | 7.0 | 0.00 | 0.00 | 0.00 | 46 | 1014.1 |
| 20260901193202 | 100 | 163 | 4.0 | 13.0 | 0.00 | 0.00 | 0.00 | 46 | 1014.3 |
| 20260901193004 | 100 | 299 | 3.0 | 13.0 | 0.00 | 0.00 | 0.00 | 45 | 1014.0 |
| 20260901192306 | 101 | 151 | 5.0 | 10.0 | 0.00 | 0.00 | 0.00 | 44 | 1014.3 |
| 20260901191617 | 100 | 137 | 7.0 | 11.0 | 0.00 | 0.00 | 0.00 | 46 | 1014.1 |
| 20260901191402 | 100 | 125 | 4.0 | 9.0 | 0.00 | 0.00 | 0.00 | 47 | 1014.4 |
| 20260901190005 | 100 | 176 | 8.0 | 12.0 | 0.00 | 0.00 | 0.00 | 45 | 1014.1 |
| 20260901185603 | 100 | 162 | 7.0 | 12.0 | 0.00 | 0.00 | 0.00 | 45 | 1014.4 |
| 20260901184702 | 100 | 162 | 5.0 | 10.0 | 0.00 | 0.00 | 0.00 | 46 | 1014.6 |
| 20260901184508 | 99 | 159 | 5.0 | 10.0 | 0.00 | 0.00 | 0.00 | 45 | 1014.3 |
| 20260901183803 | 99 | 177 | 6.0 | 12.0 | 0.00 | 0.00 | 0.00 | 44 | 1014.8 |
| 20260901183009 | 98 | 180 | 6.0 | 13.0 | 0.00 | 0.00 | 0.00 | 44 | 1014.6 |
| 20260901182902 | 99 | 172 | 6.0 | 13.0 | 0.00 | 0.00 | 0.00 | 44 | 1014.9 |
| 20260901182002 | 99 | 174 | 6.0 | 12.0 | 0.00 | 0.00 | 0.00 | 44 | 1015.1 |
| 20260901181512 | 98 | 155 | 6.0 | 13.0 | 0.00 | 0.00 | 0.00 | 45 | 1014.9 |
| 20260901181102 | 98 | 171 | 8.0 | 13.0 | 0.00 | 0.00 | 0.00 | 46 | 1015.3 |
| 20260901180004 | 98 | 169 | 8.0 | 19.0 | 0.00 | 0.00 | 0.00 | 45 | 1015.2 |
| 20260901175305 | 98 | 172 | 7.0 | 15.0 | 0.00 | 0.00 | 0.00 | 47 | 1015.6 |
| 20260901174504 | 98 | 189 | 8.0 | 13.0 | 0.00 | 0.00 | 0.00 | 47 | 1015.4 |
| 20260901174403 | 98 | 148 | 6.0 | 12.0 | 0.00 | 0.00 | 0.00 | 49 | 1015.8 |
| 20260901173502 | 98 | 164 | 7.0 | 12.0 | 0.00 | 0.00 | 0.00 | 48 | 1015.9 |
| 20260901173003 | 98 | 183 | 6.0 | 11.0 | 0.00 | 0.00 | 0.00 | 49 | 1015.7 |
| 20260901172602 | 98 | 157 | 5.0 | 11.0 | 0.00 | 0.00 | 0.00 | 49 | 1016.1 |
| 20260901171702 | 98 | 150 | 4.0 | 10.0 | 0.00 | 0.00 | 0.00 | 50 | 1016.1 |
| 20260901171503 | 97 | 160 | 7.0 | 10.0 | 0.00 | 0.00 | 0.00 | 50 | 1015.7 |
| 20260901170802 | 97 | 138 | 3.0 | 9.0 | 0.00 | 0.00 | 0.00 | 52 | 1016.2 |
| 20260901170006 | 96 | 119 | 5.0 | 10.0 | 0.00 | 0.00 | 0.00 | 50 | 1016.0 |
| 20260901165902 | 97 | 152 | 5.0 | 10.0 | 0.00 | 0.00 | 0.00 | 51 | 1016.3 |
| 20260901165002 | 96 | 181 | 6.0 | 14.0 | 0.00 | 0.00 | 0.00 | 50 | 1016.5 |
| 20260901164504 | 96 | 134 | 3.0 | 14.0 | 0.00 | 0.00 | 0.00 | 51 | 1016.2 |
| 20260901164102 | 96 | 155 | 5.0 | 10.0 | 0.00 | 0.00 | 0.00 | 53 | 1016.6 |
| 20260901163202 | 95 | 178 | 2.0 | 10.0 | 0.00 | 0.00 | 0.00 | 52 | 1016.6 |
| 20260901163109 | 94 | 173 | 3.0 | 8.0 | 0.00 | 0.00 | 0.00 | 52 | 1016.3 |
| 20260901162305 | 95 | 161 | 4.0 | 7.0 | 0.00 | 0.00 | 0.00 | 54 | 1016.7 |
| 20260901161509 | 95 | 98 | 3.0 | 7.0 | 0.00 | 0.00 | 0.00 | 54 | 1016.5 |
| 20260901161402 | 95 | 157 | 3.0 | 7.0 | 0.00 | 0.00 | 0.00 | 54 | 1016.8 |
| 20260901160004 | 94 | 183 | 4.0 | 9.0 | 0.00 | 0.00 | 0.00 | 56 | 1016.5 |
| 20260901155602 | 94 | 162 | 3.0 | 7.0 | 0.00 | 0.00 | 0.00 | 56 | 1017.0 |
| 20260901154702 | 94 | 147 | 3.0 | 7.0 | 0.00 | 0.00 | 0.00 | 57 | 1016.9 |
| 20260901154602 | 93 | 135 | 4.0 | 6.0 | 0.00 | 0.00 | 0.00 | 58 | 1016.5 |
| 20260901153802 | 94 | 152 | 3.0 | 6.0 | 0.00 | 0.00 | 0.00 | 57 | 1016.9 |
| 20260901153110 | 93 | 159 | 3.0 | 6.0 | 0.00 | 0.00 | 0.00 | 57 | 1016.6 |
| 20260901152902 | 93 | 149 | 3.0 | 8.0 | 0.00 | 0.00 | 0.00 | 58 | 1016.9 |
| 20260901152002 | 93 | 183 | 2.0 | 8.0 | 0.00 | 0.00 | 0.00 | 59 | 1016.9 |
| 20260901151603 | 92 | 238 | 1.0 | 5.0 | 0.00 | 0.00 | 0.00 | 59 | 1016.6 |
| 20260901151102 | 92 | 190 | 2.0 | 6.0 | 0.00 | 0.00 | 0.00 | 60 | 1016.9 |
| 20260901150202 | 92 | 195 | 2.0 | 4.0 | 0.00 | 0.00 | 0.00 | 62 | 1017.0 |
| 20260901150107 | 91 | 284 | 1.0 | 5.0 | 0.00 | 0.00 | 0.00 | 61 | 1016.6 |
| 20260901145306 | 91 | 171 | 2.0 | 6.0 | 0.00 | 0.00 | 0.00 | 62 | 1017.0 |
| 20260901144505 | 90 | 153 | 2.0 | 5.0 | 0.00 | 0.00 | 0.00 | 65 | 1016.7 |
| 20260901144402 | 90 | 135 | 1.0 | 5.0 | 0.00 | 0.00 | 0.00 | 64 | 1017.0 |
| 20260901143502 | 89 | 171 | 1.0 | 2.0 | 0.00 | 0.00 | 0.00 | 65 | 1017.0 |
| 20260901143002 | 88 | 311 | 0.0 | 2.0 | 0.00 | 0.00 | 0.00 | 66 | 1016.7 |
| 20260901142602 | 88 | 152 | 1.0 | 3.0 | 0.00 | 0.00 | 0.00 | 67 | 1017.0 |
| 20260901141702 | 87 | 150 | 1.0 | 3.0 | 0.00 | 0.00 | 0.00 | 69 | 1017.1 |
| 20260901141605 | 87 | 145 | 1.0 | 3.0 | 0.00 | 0.00 | 0.00 | 69 | 1016.8 |
| 20260901140802 | 86 | 140 | 1.0 | 3.0 | 0.00 | 0.00 | 0.00 | 71 | 1017.1 |
| 20260901140105 | 84 | 131 | 0.0 | 3.0 | 0.00 | 0.00 | 0.00 | 72 | 1016.8 |
| 20260901135902 | 85 | 131 | 1.0 | 3.0 | 0.00 | 0.00 | 0.00 | 73 | 1017.1 |
| 20260901134615 | 82 | 59 | 0.0 | 2.0 | 0.00 | 0.00 | 0.00 | 76 | 1016.8 |
| 20260901133202 | 80 | 81 | 0.0 | 2.0 | 0.00 | 0.00 | 0.00 | 80 | 1017.2 |
| 20260901133003 | 79 | 59 | 0.0 | 2.0 | 0.00 | 0.00 | 0.00 | 81 | 1016.8 |
| 20260901132306 | 79 | 90 | 0.0 | 2.0 | 0.00 | 0.00 | 0.00 | 83 | 1017.1 |
| 20260901131511 | 77 | 92 | 0.0 | 2.0 | 0.00 | 0.00 | 0.00 | 85 | 1016.8 |
| 20260901131402 | 78 | 43 | 0.0 | 2.0 | 0.00 | 0.00 | 0.00 | 85 | 1017.0 |
| 20260901130502 | 76 | 0 | 0.0 | 0.0 | 0.00 | 0.00 | 0.00 | 88 | 1016.9 |
| 20260901130004 | 75 | 142 | 0.0 | 0.0 | 0.00 | 0.00 | 0.00 | 89 | 1016.6 |
| 20260901125602 | 75 | 0 | 0.0 | 0.0 | 0.00 | 0.00 | 0.00 | 89 | 1016.9 |
| 20260901124702 | 75 | 144 | 0.0 | 1.0 | 0.00 | 0.00 | 0.00 | 89 | 1016.8 |
| 20260901124605 | 74 | 142 | 0.0 | 1.0 | 0.00 | 0.00 | 0.00 | 89 | 1016.5 |
| 20260901123015 | 74 | 20 | 0.0 | 1.0 | 0.00 | 0.00 | 0.00 | 89 | 1016.4 |
| 20260901122902 | 74 | 13 | 0.0 | 1.0 | 0.00 | 0.00 | 0.00 | 89 | 1016.7 |
| 20260901122002 | 74 | 321 | 0.0 | 1.0 | 0.00 | 0.00 | 0.00 | 89 | 1016.5 |
| 20260901121503 | 74 | 321 | 0.0 | 1.0 | 0.00 | 0.00 | 0.00 | 89 | 1016.2 |
| 20260901121102 | 74 | 292 | 0.0 | 1.0 | 0.00 | 0.00 | 0.00 | 89 | 1016.4 |
| 20260901120202 | 74 | 0 | 0.0 | 0.0 | 0.00 | 0.00 | 0.00 | 88 | 1016.3 |
| 20260901120009 | 74 | 96 | 0.0 | 0.0 | 0.00 | 0.00 | 0.00 | 88 | 1016.0 |
| 20260901115306 | 75 | 0 | 0.0 | 0.0 | 0.00 | 0.00 | 0.00 | 88 | 1016.2 |
| 20260901114513 | 74 | 135 | 0.0 | 0.0 | 0.00 | 0.00 | 0.00 | 88 | 1015.8 |
| 20260901114402 | 75 | 0 | 0.0 | 0.0 | 0.00 | 0.00 | 0.00 | 88 | 1016.0 |
| 20260901113502 | 75 | 0 | 0.0 | 0.0 | 0.00 | 0.00 | 0.00 | 87 | 1015.9 |
| 20260901113003 | 74 | 144 | 0.0 | 0.0 | 0.00 | 0.00 | 0.00 | 87 | 1015.6 |
| 20260901112602 | 75 | 0 | 0.0 | 0.0 | 0.00 | 0.00 | 0.00 | 87 | 1015.9 |
| 20260901111702 | 75 | 0 | 0.0 | 0.0 | 0.00 | 0.00 | 0.00 | 87 | 1015.9 |
| 20260901111504 | 75 | 144 | 0.0 | 0.0 | 0.00 | 0.00 | 0.00 | 87 | 1015.6 |
| 20260901110802 | 75 | 0 | 0.0 | 0.0 | 0.00 | 0.00 | 0.00 | 87 | 1016.0 |
| 20260901110109 | 75 | 144 | 0.0 | 0.0 | 0.00 | 0.00 | 0.00 | 87 | 1015.6 |
| 20260901105902 | 75 | 0 | 0.0 | 0.0 | 0.00 | 0.00 | 0.00 | 87 | 1015.9 |
| 20260901104611 | 75 | 144 | 0.0 | 0.0 | 0.00 | 0.00 | 0.00 | 86 | 1015.5 |
| 20260901104102 | 76 | 0 | 0.0 | 0.0 | 0.00 | 0.00 | 0.00 | 86 | 1015.7 |
| 20260901103007 | 76 | 144 | 0.0 | 0.0 | 0.00 | 0.00 | 0.00 | 85 | 1015.5 |
| 20260901102306 | 76 | 0 | 0.0 | 0.0 | 0.00 | 0.00 | 0.00 | 85 | 1015.7 |
| 20260901101507 | 76 | 144 | 0.0 | 0.0 | 0.00 | 0.00 | 0.00 | 84 | 1015.3 |
| 20260901101402 | 76 | 0 | 0.0 | 0.0 | 0.00 | 0.00 | 0.00 | 85 | 1015.6 |
| 20260901100009 | 76 | 144 | 0.0 | 0.0 | 0.00 | 0.00 | 0.00 | 85 | 1015.3 |
| 20260901094702 | 76 | 0 | 0.0 | 0.0 | 0.00 | 0.00 | 0.00 | 84 | 1015.7 |
| 20260901094604 | 76 | 144 | 0.0 | 0.0 | 0.00 | 0.00 | 0.00 | 84 | 1015.4 |
| 20260901093802 | 76 | 0 | 0.0 | 0.0 | 0.00 | 0.00 | 0.00 | 84 | 1015.7 |
| 20260901093004 | 76 | 144 | 0.0 | 0.0 | 0.00 | 0.00 | 0.00 | 84 | 1015.4 |
| 20260901092902 | 77 | 0 | 0.0 | 0.0 | 0.00 | 0.00 | 0.00 | 84 | 1015.6 |
| 20260901091509 | 76 | 144 | 0.0 | 0.0 | 0.00 | 0.00 | 0.00 | 84 | 1015.4 |
| 20260901091102 | 77 | 0 | 0.0 | 0.0 | 0.00 | 0.00 | 0.00 | 83 | 1015.7 |
| 20260901090202 | 76 | 0 | 0.0 | 0.0 | 0.00 | 0.00 | 0.00 | 84 | 1015.6 |
| 20260901090008 | 76 | 144 | 0.0 | 0.0 | 0.00 | 0.00 | 0.00 | 84 | 1015.3 |
| 20260901085305 | 76 | 0 | 0.0 | 0.0 | 0.00 | 0.00 | 0.00 | 85 | 1015.5 |
| 20260901084507 | 76 | 144 | 0.0 | 0.0 | 0.00 | 0.00 | 0.00 | 85 | 1015.3 |
| 20260901084402 | 76 | 0 | 0.0 | 0.0 | 0.00 | 0.00 | 0.00 | 85 | 1015.6 |
| 20260901083502 | 76 | 0 | 0.0 | 0.0 | 0.00 | 0.00 | 0.00 | 84 | 1015.6 |
| 20260901083012 | 76 | 144 | 0.0 | 0.0 | 0.00 | 0.00 | 0.00 | 84 | 1015.4 |
| 20260901082602 | 77 | 0 | 0.0 | 0.0 | 0.00 | 0.00 | 0.00 | 84 | 1015.8 |
| 20260901081702 | 77 | 144 | 1.0 | 2.0 | 0.00 | 0.00 | 0.00 | 84 | 1015.7 |
| 20260901081603 | 76 | 144 | 0.0 | 2.0 | 0.00 | 0.00 | 0.00 | 84 | 1015.4 |
| 20260901080004 | 76 | 144 | 1.0 | 2.0 | 0.00 | 0.00 | 0.00 | 84 | 1015.3 |
| 20260901075002 | 77 | 144 | 1.0 | 2.0 | 0.00 | 0.00 | 0.00 | 83 | 1015.6 |
| 20260901074502 | 77 | 144 | 0.0 | 2.0 | 0.00 | 0.00 | 0.00 | 83 | 1015.2 |
| 20260901074102 | 77 | 144 | 1.0 | 2.0 | 0.00 | 0.00 | 0.00 | 82 | 1015.6 |
| 20260901073202 | 78 | 144 | 0.0 | 1.0 | 0.00 | 0.00 | 0.00 | 82 | 1015.7 |
| 20260901073004 | 77 | 144 | 0.0 | 2.0 | 0.00 | 0.00 | 0.00 | 82 | 1015.3 |
| 20260901072308 | 78 | 143 | 1.0 | 2.0 | 0.00 | 0.00 | 0.00 | 81 | 1015.6 |
| 20260901071606 | 77 | 144 | 0.0 | 2.0 | 0.00 | 0.00 | 0.00 | 81 | 1015.3 |
| 20260901071402 | 78 | 144 | 1.0 | 2.0 | 0.00 | 0.00 | 0.00 | 81 | 1015.6 |
| 20260901070502 | 78 | 144 | 1.0 | 2.0 | 0.00 | 0.00 | 0.00 | 80 | 1015.4 |
| 20260901070007 | 78 | 144 | 0.0 | 2.0 | 0.00 | 0.00 | 0.00 | 80 | 1015.2 |
| 20260901065602 | 78 | 144 | 0.0 | 1.0 | 0.00 | 0.00 | 0.00 | 80 | 1015.5 |
| 20260901064702 | 79 | 0 | 0.0 | 0.0 | 0.00 | 0.00 | 0.00 | 79 | 1015.4 |
| 20260901064509 | 78 | 144 | 0.0 | 0.0 | 0.00 | 0.00 | 0.00 | 79 | 1015.0 |
| 20260901063802 | 79 | 0 | 0.0 | 0.0 | 0.00 | 0.00 | 0.00 | 79 | 1015.4 |
| 20260901063006 | 79 | 144 | 0.0 | 0.0 | 0.00 | 0.00 | 0.00 | 78 | 1015.0 |
| 20260901062902 | 80 | 0 | 0.0 | 0.0 | 0.00 | 0.00 | 0.00 | 78 | 1015.4 |
| 20260901062002 | 80 | 0 | 0.0 | 0.0 | 0.00 | 0.00 | 0.00 | 77 | 1015.3 |
| 20260901061509 | 79 | 144 | 0.0 | 0.0 | 0.00 | 0.00 | 0.00 | 77 | 1015.0 |
| 20260901061102 | 80 | 0 | 0.0 | 0.0 | 0.00 | 0.00 | 0.00 | 77 | 1015.2 |
| 20260901060202 | 80 | 144 | 0.0 | 1.0 | 0.00 | 0.00 | 0.00 | 76 | 1015.3 |
| 20260901060004 | 80 | 144 | 0.0 | 1.0 | 0.00 | 0.00 | 0.00 | 76 | 1014.9 |
| 20260901055306 | 81 | 144 | 0.0 | 1.0 | 0.00 | 0.00 | 0.00 | 75 | 1015.2 |
| 20260901054503 | 81 | 144 | 0.0 | 1.0 | 0.00 | 0.00 | 0.00 | 75 | 1014.8 |
| 20260901054402 | 81 | 144 | 0.0 | 1.0 | 0.00 | 0.00 | 0.00 | 74 | 1015.0 |
| 20260901053502 | 81 | 144 | 0.0 | 1.0 | 0.00 | 0.00 | 0.00 | 74 | 1014.9 |
| 20260901053004 | 81 | 145 | 0.0 | 1.0 | 0.00 | 0.00 | 0.00 | 73 | 1014.6 |
| 20260901051702 | 82 | 0 | 0.0 | 0.0 | 0.00 | 0.00 | 0.00 | 72 | 1014.8 |
| 20260901051505 | 81 | 144 | 0.0 | 0.0 | 0.00 | 0.00 | 0.00 | 72 | 1014.5 |
| 20260901050802 | 82 | 142 | 0.0 | 1.0 | 0.00 | 0.00 | 0.00 | 72 | 1014.8 |
| 20260901050009 | 82 | 144 | 0.0 | 2.0 | 0.00 | 0.00 | 0.00 | 71 | 1014.4 |
| 20260901045902 | 82 | 130 | 0.0 | 2.0 | 0.00 | 0.00 | 0.00 | 71 | 1014.7 |
| 20260901045002 | 82 | 122 | 0.0 | 1.0 | 0.00 | 0.00 | 0.00 | 71 | 1014.8 |
| 20260901044502 | 82 | 123 | 0.0 | 1.0 | 0.00 | 0.00 | 0.00 | 71 | 1014.4 |
| 20260901044102 | 83 | 123 | 0.0 | 2.0 | 0.00 | 0.00 | 0.00 | 70 | 1014.8 |
| 20260901043007 | 82 | 123 | 0.0 | 1.0 | 0.00 | 0.00 | 0.00 | 70 | 1014.4 |
| 20260901042305 | 83 | 127 | 0.0 | 2.0 | 0.00 | 0.00 | 0.00 | 70 | 1014.8 |
| 20260901041508 | 83 | 123 | 0.0 | 2.0 | 0.00 | 0.00 | 0.00 | 69 | 1014.5 |
| 20260901041402 | 83 | 126 | 0.0 | 2.0 | 0.00 | 0.00 | 0.00 | 69 | 1014.8 |
| 20260901040502 | 83 | 127 | 0.0 | 2.0 | 0.00 | 0.00 | 0.00 | 69 | 1014.8 |
| 20260901040113 | 83 | 121 | 0.0 | 2.0 | 0.00 | 0.00 | 0.00 | 68 | 1014.4 |
| 20260901034702 | 84 | 112 | 0.0 | 2.0 | 0.00 | 0.00 | 0.00 | 68 | 1014.7 |
| 20260901034504 | 83 | 113 | 0.0 | 2.0 | 0.00 | 0.00 | 0.00 | 68 | 1014.3 |
| 20260901033802 | 84 | 113 | 0.0 | 2.0 | 0.00 | 0.00 | 0.00 | 67 | 1014.6 |
| 20260901033107 | 83 | 113 | 0.0 | 1.0 | 0.00 | 0.00 | 0.00 | 67 | 1014.3 |
| 20260901032902 | 84 | 113 | 0.0 | 1.0 | 0.00 | 0.00 | 0.00 | 67 | 1014.6 |
| 20260901032002 | 84 | 147 | 0.0 | 1.0 | 0.00 | 0.00 | 0.00 | 66 | 1014.6 |
| 20260901031603 | 84 | 111 | 0.0 | 1.0 | 0.00 | 0.00 | 0.00 | 65 | 1014.3 |
| 20260901031102 | 85 | 110 | 0.0 | 1.0 | 0.00 | 0.00 | 0.00 | 65 | 1014.5 |
| 20260901030202 | 85 | 112 | 0.0 | 2.0 | 0.00 | 0.00 | 0.00 | 64 | 1014.3 |
| 20260901030104 | 84 | 111 | 0.0 | 2.0 | 0.00 | 0.00 | 0.00 | 64 | 1014.0 |
| 20260901024605 | 85 | 117 | 0.0 | 3.0 | 0.00 | 0.00 | 0.00 | 64 | 1013.7 |
| 20260901024402 | 85 | 116 | 0.0 | 3.0 | 0.00 | 0.00 | 0.00 | 63 | 1014.0 |
| 20260901023502 | 85 | 144 | 0.0 | 3.0 | 0.00 | 0.00 | 0.00 | 63 | 1014.0 |
| 20260901023102 | 84 | 159 | 0.0 | 3.0 | 0.00 | 0.00 | 0.00 | 63 | 1013.7 |
| 20260901022602 | 85 | 143 | 1.0 | 3.0 | 0.00 | 0.00 | 0.00 | 63 | 1013.9 |
| 20260901021702 | 85 | 145 | 0.0 | 3.0 | 0.00 | 0.00 | 0.00 | 62 | 1013.8 |
| 20260901021603 | 84 | 109 | 0.0 | 3.0 | 0.00 | 0.00 | 0.00 | 62 | 1013.5 |
| 20260901020802 | 85 | 163 | 0.0 | 1.0 | 0.00 | 0.00 | 0.00 | 61 | 1013.7 |
| 20260901020105 | 85 | 164 | 0.0 | 0.0 | 0.00 | 0.00 | 0.00 | 61 | 1013.4 |
| 20260901015902 | 85 | 0 | 0.0 | 0.0 | 0.00 | 0.00 | 0.00 | 61 | 1013.6 |
| 20260901015002 | 86 | 0 | 0.0 | 0.0 | 0.00 | 0.00 | 0.00 | 60 | 1013.6 |
| 20260901014603 | 86 | 164 | 0.0 | 0.0 | 0.00 | 0.00 | 0.00 | 60 | 1013.2 |
| 20260901014102 | 87 | 0 | 0.0 | 0.0 | 0.00 | 0.00 | 0.00 | 59 | 1013.4 |
| 20260901013202 | 87 | 0 | 0.0 | 0.0 | 0.00 | 0.00 | 0.00 | 57 | 1013.4 |
| 20260901013107 | 87 | 164 | 0.0 | 0.0 | 0.00 | 0.00 | 0.00 | 57 | 1013.1 |
| 20260901012306 | 88 | 164 | 0.0 | 1.0 | 0.00 | 0.00 | 0.00 | 55 | 1013.4 |
| 20260901011503 | 88 | 164 | 0.0 | 1.0 | 0.00 | 0.00 | 0.00 | 54 | 1013.1 |
| 20260901011402 | 89 | 163 | 0.0 | 1.0 | 0.00 | 0.00 | 0.00 | 54 | 1013.3 |
| 20260901010502 | 90 | 163 | 0.0 | 1.0 | 0.00 | 0.00 | 0.00 | 53 | 1013.3 |
| 20260901010108 | 90 | 164 | 0.0 | 1.0 | 0.00 | 0.00 | 0.00 | 52 | 1012.9 |